Location: Unspecified
(0.0000°N, 0.0000°E)
Time: 22:09:55
(UTC+00:00)

Vanguard 2 Rocket - Pass Details

Date: 11 October 2022
Orbit: 553 x 3312 km, 32.9° (Epoch: 30 November)

Event Time Altitude Azimuth Distance (km) Brightness Sun altitude
Rises 18:44:12 0° 258° (WSW) 6,668 13.3 -14.3°
Reaches altitude 10° 18:48:48 10° 265° (W) 5,906 12.4 -15.4°
Maximum altitude 19:06:22 41° 328° (NNW) 4,235 10.4 -19.8°
Drops below altitude 10° 19:23:18 10° 33° (NNE) 5,631 10.5 -24.0°
Enters shadow 19:24:37 - 36° (NE) 5,835 10.6 -24.3°
